Weather in Yusovo

Russia / Lipetsk Oblast     53°13′23″N   39°58′52″E
temp.,
°C
wind,
m/s
gust,
m/s
humid.,
%
clouds,
%
prec.,
mm/h
press.,
hPa
HPBL,
m
23 april, fri
fri2300:00+7s37785 0.0 1020117
03:00+6s368294 0.0 102093
06:00+7s368388 0.0 1020113
09:00+13s466533 0.0 1019416
12:00+16s6743100 0.8 10182405
15:00+15s575162 0.9 10161320
18:00+14sse486199 0.0 1015320
21:00+11sse4117764 0.1 1014243
24 april, sat
sat2400:00+9sse4983100 0.1 1012189
03:00+8sse488990 0.1 1010150
06:00+7sse41093100 0.3 1008301
09:00+5wnw6790100 0.4 1008494
12:00+3w51196100 4.1 1009661
15:00+9w696581 4.8 10081407
18:00+8w71158100 1.0 10091077
21:00+4sw511713 1.1 1009358
25 april, sun
sun2500:00+3wsw7118995 0.2 1009669
03:00+1w91697100 2.6 10101003
06:00+1w7138610 0.6 1012578
09:00+4wsw711735 0.6 10141034
12:00+7w81156100 0.6 10142054
15:00+9wsw8134491 1.1 10142706
18:00+8sw611595 0.3 10131368
21:00+6ssw51270100 0.3 1013483
26 april, mon
mon2600:00+3wsw599465 4.2 1014510
03:00+2sw410895 4.2 1015292
06:00+1sw38881 0.0 1016255
09:00+5wsw46635 0.0 1016893
12:00+8wsw454882 0.0 10151909
15:00+9sw3443100 0.0 10141934
18:00+7ssw4457100 0.0 10131121
21:00+5sw2366100 0.0 101277
27 april, tue
tue2700:00+4s3582100 0.0 1012176
03:00+2ssw338997 0.0 101169
06:00+2sw248618 0.0 1011117
09:00+6wsw4565100 0.4 1010723
12:00+7sw6659100 0.8 10101446
15:00+8wsw4458100 1.6 10091311
18:00+5sw5684100 1.4 1010280
21:00+3wsw4107953 1.8 1011209